| time (UTC) | temp F | wind direction | speed MPH | gust MPH | rain 1hr in | rain 24hr in | rain mn in | humidity % | barometer mb |
| 20260506031551 | 50 | 183 | 0.0 | 0.0 | 0.00 | 0.03 | 0.00 | 91 | 1004.9 |
| 20260506030033 | 51 | 183 | 0.0 | 0.0 | 0.00 | 0.03 | 0.00 | 91 | 1005.1 |
| 20260506024535 | 50 | 183 | 0.0 | 0.0 | 0.00 | 0.03 | 0.00 | 91 | 1005.5 |
| 20260506023030 | 51 | 183 | 0.0 | 0.0 | 0.00 | 0.03 | 0.00 | 91 | 1005.6 |
| 20260506021527 | 51 | 183 | 0.0 | 0.0 | 0.00 | 0.03 | 0.00 | 92 | 1005.8 |
| 20260506020025 | 52 | 183 | 0.0 | 0.0 | 0.00 | 0.03 | 0.00 | 92 | 1006.0 |
| 20260506014528 | 52 | 183 | 0.0 | 0.0 | 0.00 | 0.03 | 0.00 | 92 | 1006.5 |
| 20260506013024 | 52 | 183 | 0.0 | 0.0 | 0.00 | 0.03 | 0.00 | 92 | 1006.6 |
| 20260506011525 | 52 | 183 | 0.0 | 0.0 | 0.00 | 0.03 | 0.00 | 92 | 1006.7 |
| 20260506010022 | 52 | 183 | 0.0 | 0.0 | 0.00 | 0.03 | 0.00 | 93 | 1006.7 |
| 20260506004519 | 52 | 182 | 0.0 | 0.0 | 0.00 | 0.03 | 0.00 | 93 | 1006.7 |
| 20260506003019 | 52 | 182 | 0.0 | 2.0 | 0.00 | 0.03 | 0.00 | 93 | 1007.1 |
| 20260506001516 | 52 | 198 | 0.0 | 0.0 | 0.00 | 0.03 | 0.00 | 93 | 1007.1 |
| 20260506000013 | 52 | 198 | 0.0 | 1.0 | 0.00 | 0.03 | 0.00 | 93 | 1007.8 |
| 20260505234526 | 52 | 186 | 0.0 | 2.0 | 0.00 | 0.03 | 0.00 | 93 | 1007.9 |
| 20260505233016 | 52 | 185 | 0.0 | 1.0 | 0.00 | 0.03 | 0.00 | 93 | 1008.0 |
| 20260505231513 | 52 | 185 | 0.0 | 1.0 | 0.00 | 0.03 | 0.00 | 93 | 1008.4 |
| 20260505230012 | 53 | 182 | 0.0 | 2.0 | 0.00 | 0.03 | 0.00 | 93 | 1008.3 |
| 20260505224508 | 53 | 226 | 0.0 | 3.0 | 0.00 | 0.03 | 0.00 | 93 | 1007.9 |
| 20260505223009 | 53 | 186 | 0.0 | 1.0 | 0.00 | 0.03 | 0.00 | 92 | 1008.2 |
| 20260505221504 | 53 | 183 | 0.0 | 2.0 | 0.00 | 0.03 | 0.00 | 92 | 1008.3 |
| 20260505220007 | 54 | 211 | 0.0 | 2.0 | 0.00 | 0.03 | 0.03 | 91 | 1008.5 |
| 20260505214502 | 54 | 212 | 0.0 | 2.0 | 0.00 | 0.03 | 0.03 | 91 | 1008.3 |
| 20260505213000 | 54 | 215 | 0.0 | 1.0 | 0.00 | 0.03 | 0.03 | 90 | 1008.4 |
| 20260505211614 | 54 | 215 | 0.0 | 2.0 | 0.00 | 0.03 | 0.03 | 90 | 1008.2 |
| 20260505204602 | 55 | 213 | 0.0 | 0.0 | 0.00 | 0.03 | 0.03 | 89 | 1008.1 |
| 20260505203104 | 55 | 213 | 0.0 | 0.0 | 0.00 | 0.03 | 0.03 | 89 | 1008.0 |
| 20260505201608 | 55 | 213 | 0.0 | 0.0 | 0.00 | 0.03 | 0.03 | 88 | 1008.0 |
| 20260505200106 | 55 | 213 | 0.0 | 1.0 | 0.00 | 0.03 | 0.03 | 87 | 1008.1 |
| 20260505194606 | 56 | 192 | 0.0 | 1.0 | 0.00 | 0.03 | 0.03 | 87 | 1008.1 |
| 20260505193057 | 56 | 192 | 0.0 | 0.0 | 0.00 | 0.03 | 0.03 | 86 | 1007.9 |
| 20260505191557 | 56 | 192 | 0.0 | 0.0 | 0.00 | 0.03 | 0.03 | 85 | 1007.6 |
| 20260505184557 | 56 | 192 | 0.0 | 1.0 | 0.00 | 0.03 | 0.03 | 85 | 1007.1 |
| 20260505183055 | 57 | 190 | 0.0 | 2.0 | 0.00 | 0.03 | 0.03 | 83 | 1007.2 |
| 20260505181555 | 57 | 156 | 0.0 | 1.0 | 0.00 | 0.03 | 0.03 | 83 | 1007.0 |
| 20260505180055 | 57 | 155 | 0.0 | 0.0 | 0.00 | 0.03 | 0.03 | 82 | 1006.8 |
| 20260505174554 | 57 | 155 | 0.0 | 1.0 | 0.00 | 0.03 | 0.03 | 81 | 1006.8 |
| 20260505173054 | 58 | 155 | 0.0 | 0.0 | 0.00 | 0.03 | 0.03 | 79 | 1006.8 |
| 20260505171553 | 58 | 155 | 0.0 | 0.0 | 0.00 | 0.03 | 0.03 | 77 | 1006.6 |
| 20260505170053 | 57 | 155 | 0.0 | 0.0 | 0.00 | 0.03 | 0.03 | 81 | 1006.6 |
| 20260505164609 | 57 | 155 | 0.0 | 0.0 | 0.01 | 0.03 | 0.03 | 81 | 1006.6 |
| 20260505163053 | 58 | 155 | 0.0 | 2.0 | 0.01 | 0.03 | 0.03 | 82 | 1006.9 |
| 20260505161557 | 57 | 121 | 1.0 | 7.0 | 0.02 | 0.03 | 0.03 | 86 | 1007.0 |
| 20260505153051 | 55 | 202 | 0.0 | 4.0 | 0.02 | 0.02 | 0.02 | 86 | 1007.2 |
| 20260505151550 | 56 | 216 | 4.0 | 11.0 | 0.01 | 0.01 | 0.01 | 82 | 1007.1 |
| 20260505124548 | 66 | 127 | 4.0 | 15.0 | 0.00 | 0.00 | 0.00 | 42 | 1005.3 |
| 20260505123043 | 66 | 136 | 1.0 | 12.0 | 0.00 | 0.00 | 0.00 | 40 | 1005.0 |
| 20260505121544 | 66 | 130 | 3.0 | 14.0 | 0.00 | 0.00 | 0.00 | 39 | 1004.8 |
| 20260505120049 | 67 | 115 | 1.0 | 12.0 | 0.00 | 0.00 | 0.00 | 41 | 1004.7 |
| 20260505114545 | 67 | 129 | 2.0 | 14.0 | 0.00 | 0.00 | 0.00 | 40 | 1004.8 |
| 20260505113040 | 68 | 148 | 3.0 | 13.0 | 0.00 | 0.00 | 0.00 | 41 | 1004.8 |
| 20260505111539 | 68 | 51 | 1.0 | 13.0 | 0.00 | 0.00 | 0.00 | 39 | 1004.9 |
| 20260505101528 | 65 | 132 | 0.0 | 4.0 | 0.00 | 0.00 | 0.00 | 53 | 1005.9 |
| 20260505100026 | 64 | 317 | 0.0 | 2.0 | 0.00 | 0.00 | 0.00 | 54 | 1006.1 |
| 20260505094527 | 64 | 310 | 0.0 | 2.0 | 0.00 | 0.00 | 0.00 | 55 | 1006.2 |
| 20260505093017 | 61 | 169 | 0.0 | 2.0 | 0.00 | 0.00 | 0.00 | 67 | 1006.5 |
| 20260505091514 | 61 | 168 | 0.0 | 2.0 | 0.00 | 0.00 | 0.00 | 68 | 1006.8 |
| 20260505090010 | 58 | 163 | 0.0 | 0.0 | 0.00 | 0.00 | 0.00 | 87 | 1006.9 |
| 20260505084507 | 55 | 164 | 0.0 | 0.0 | 0.00 | 0.00 | 0.00 | 86 | 1007.3 |
| 20260505083002 | 54 | 164 | 0.0 | 0.0 | 0.00 | 0.00 | 0.00 | 87 | 1007.5 |
| 20260505081501 | 54 | 164 | 0.0 | 1.0 | 0.00 | 0.00 | 0.00 | 88 | 1007.7 |
| 20260505080108 | 54 | 164 | 0.0 | 1.0 | 0.00 | 0.00 | 0.00 | 88 | 1007.9 |
| 20260505074557 | 53 | 164 | 0.0 | 1.0 | 0.00 | 0.00 | 0.00 | 89 | 1008.0 |
| 20260505073055 | 53 | 164 | 0.0 | 1.0 | 0.00 | 0.00 | 0.00 | 90 | 1008.2 |
| 20260505071554 | 53 | 165 | 0.0 | 1.0 | 0.00 | 0.00 | 0.00 | 89 | 1008.3 |
| 20260505070053 | 53 | 214 | 0.0 | 0.0 | 0.00 | 0.00 | 0.00 | 88 | 1008.3 |
| 20260505064545 | 53 | 215 | 0.0 | 0.0 | 0.00 | 0.00 | 0.00 | 87 | 1008.4 |
| 20260505063101 | 53 | 215 | 0.0 | 0.0 | 0.00 | 0.00 | 0.00 | 86 | 1008.2 |
| 20260505061545 | 53 | 215 | 0.0 | 0.0 | 0.00 | 0.00 | 0.00 | 86 | 1008.4 |
| 20260505060042 | 53 | 215 | 0.0 | 0.0 | 0.00 | 0.00 | 0.00 | 86 | 1008.4 |
| 20260505054541 | 52 | 216 | 0.0 | 0.0 | 0.00 | 0.00 | 0.00 | 86 | 1008.2 |
| 20260505053038 | 53 | 216 | 0.0 | 0.0 | 0.00 | 0.00 | 0.00 | 85 | 1008.1 |
| 20260505051536 | 53 | 216 | 0.0 | 1.0 | 0.00 | 0.00 | 0.00 | 85 | 1008.0 |
| 20260505041547 | 53 | 211 | 0.0 | 1.0 | 0.00 | 0.00 | 0.00 | 80 | 1007.8 |
| 20260505040039 | 53 | 209 | 0.0 | 4.0 | 0.00 | 0.00 | 0.00 | 76 | 1007.5 |
| 20260505034530 | 54 | 193 | 0.0 | 2.0 | 0.00 | 0.00 | 0.00 | 71 | 1007.5 |
| 20260505033025 | 54 | 271 | 0.0 | 1.0 | 0.00 | 0.00 | 0.00 | 69 | 1007.3 |